<?xml version="1.0" encoding="UTF-8" standalone="no" ?>
<gpx xmlns="http://www.topografix.com/GPX/1/1" xmlns:xsi="http://www.w3.org/2001/XMLSchema-instance" xsi:schemaLocation="http://www.topografix.com/GPX/1/1 http://www.topografix.com/GPX/1/1/gpx.xsd" version="1.1" creator="VisuGPX - https://www.visugpx.com">
  <metadata>
    <name>variante descente vers les ronbines</name>
    <desc><![CDATA[  boucle transverdon - alpes provence
variante sur etape 1
permet de descendre par un autre itineraire et un autre point de vue]]></desc>
  </metadata>
  <trk>
    <name><![CDATA[variante descente vers les ronbines]]></name>
    <trkseg>
      <trkpt lat="44.07972" lon="6.34127">
        <ele>1611.7</ele>
        <time>2020-03-04T15:47:04Z</time>
      </trkpt>
      <trkpt lat="44.08194" lon="6.34092">
        <ele>1619.4</ele>
        <time>2020-03-04T15:47:04Z</time>
      </trkpt>
      <trkpt lat="44.08427" lon="6.34111">
        <ele>1618</ele>
        <time>2020-03-04T15:47:04Z</time>
      </trkpt>
      <trkpt lat="44.08674" lon="6.34132">
        <ele>1617.7</ele>
        <time>2020-03-04T15:47:04Z</time>
      </trkpt>
      <trkpt lat="44.08972" lon="6.34087">
        <ele>1630.4</ele>
        <time>2020-03-04T15:47:04Z</time>
      </trkpt>
      <trkpt lat="44.09168" lon="6.34087">
        <ele>1628.4</ele>
        <time>2020-03-04T15:47:04Z</time>
      </trkpt>
      <trkpt lat="44.09377" lon="6.34154">
        <ele>1634.5</ele>
        <time>2020-03-04T15:47:04Z</time>
      </trkpt>
      <trkpt lat="44.09564" lon="6.34302">
        <ele>1658.1</ele>
        <time>2020-03-04T15:47:04Z</time>
      </trkpt>
      <trkpt lat="44.09422" lon="6.34794">
        <ele>1619.3</ele>
        <time>2020-03-04T15:47:04Z</time>
      </trkpt>
      <trkpt lat="44.09415" lon="6.35054">
        <ele>1612.9</ele>
        <time>2020-03-04T15:47:04Z</time>
      </trkpt>
      <trkpt lat="44.09393" lon="6.35106">
        <ele>1599.8</ele>
        <time>2020-03-04T15:47:04Z</time>
      </trkpt>
      <trkpt lat="44.09415" lon="6.35216">
        <ele>1618.1</ele>
        <time>2020-03-04T15:47:04Z</time>
      </trkpt>
      <trkpt lat="44.09382" lon="6.35269">
        <ele>1586.3</ele>
        <time>2020-03-04T15:47:04Z</time>
      </trkpt>
      <trkpt lat="44.09423" lon="6.35367">
        <ele>1608.1</ele>
        <time>2020-03-04T15:47:04Z</time>
      </trkpt>
      <trkpt lat="44.09254" lon="6.35703">
        <ele>1548.6</ele>
        <time>2020-03-04T15:47:04Z</time>
      </trkpt>
      <trkpt lat="44.0924" lon="6.3582">
        <ele>1552.7</ele>
        <time>2020-03-04T15:47:04Z</time>
      </trkpt>
      <trkpt lat="44.09149" lon="6.36107">
        <ele>1530.4</ele>
        <time>2020-03-04T15:47:04Z</time>
      </trkpt>
      <trkpt lat="44.09163" lon="6.36171">
        <ele>1541.7</ele>
        <time>2020-03-04T15:47:04Z</time>
      </trkpt>
      <trkpt lat="44.09132" lon="6.36214">
        <ele>1524.5</ele>
        <time>2020-03-04T15:47:04Z</time>
      </trkpt>
      <trkpt lat="44.09139" lon="6.36298">
        <ele>1523.9</ele>
        <time>2020-03-04T15:47:04Z</time>
      </trkpt>
      <trkpt lat="44.0911" lon="6.36346">
        <ele>1509.2</ele>
        <time>2020-03-04T15:47:04Z</time>
      </trkpt>
      <trkpt lat="44.09137" lon="6.36427">
        <ele>1514.7</ele>
        <time>2020-03-04T15:47:04Z</time>
      </trkpt>
      <trkpt lat="44.09136" lon="6.36513">
        <ele>1513.7</ele>
        <time>2020-03-04T15:47:04Z</time>
      </trkpt>
      <trkpt lat="44.09094" lon="6.36494">
        <ele>1495.3</ele>
        <time>2020-03-04T15:47:04Z</time>
      </trkpt>
      <trkpt lat="44.0907" lon="6.36518">
        <ele>1489.4</ele>
        <time>2020-03-04T15:47:04Z</time>
      </trkpt>
      <trkpt lat="44.09033" lon="6.36499">
        <ele>1477.8</ele>
        <time>2020-03-04T15:47:04Z</time>
      </trkpt>
      <trkpt lat="44.08842" lon="6.36377">
        <ele>1441.5</ele>
        <time>2020-03-04T15:47:04Z</time>
      </trkpt>
      <trkpt lat="44.08801" lon="6.36293">
        <ele>1433.6</ele>
        <time>2020-03-04T15:47:04Z</time>
      </trkpt>
      <trkpt lat="44.08796" lon="6.36212">
        <ele>1425.6</ele>
        <time>2020-03-04T15:47:04Z</time>
      </trkpt>
      <trkpt lat="44.08812" lon="6.36093">
        <ele>1402.1</ele>
        <time>2020-03-04T15:47:04Z</time>
      </trkpt>
      <trkpt lat="44.08702" lon="6.35935">
        <ele>1403.5</ele>
        <time>2020-03-04T15:47:04Z</time>
      </trkpt>
      <trkpt lat="44.08373" lon="6.35997">
        <ele>1430.8</ele>
        <time>2020-03-04T15:47:04Z</time>
      </trkpt>
      <trkpt lat="44.08163" lon="6.36145">
        <ele>1415</ele>
        <time>2020-03-04T15:47:04Z</time>
      </trkpt>
      <trkpt lat="44.08052" lon="6.36191">
        <ele>1405.8</ele>
        <time>2020-03-04T15:47:04Z</time>
      </trkpt>
      <trkpt lat="44.07976" lon="6.36236">
        <ele>1405.2</ele>
        <time>2020-03-04T15:47:04Z</time>
      </trkpt>
      <trkpt lat="44.07882" lon="6.36282">
        <ele>1388.5</ele>
        <time>2020-03-04T15:47:04Z</time>
      </trkpt>
      <trkpt lat="44.07812" lon="6.36372">
        <ele>1376.2</ele>
        <time>2020-03-04T15:47:04Z</time>
      </trkpt>
      <trkpt lat="44.07709" lon="6.36368">
        <ele>1384.3</ele>
        <time>2020-03-04T15:47:04Z</time>
      </trkpt>
      <trkpt lat="44.07606" lon="6.36423">
        <ele>1389.7</ele>
        <time>2020-03-04T15:47:04Z</time>
      </trkpt>
      <trkpt lat="44.07772" lon="6.36279">
        <ele>1375.3</ele>
        <time>2020-03-04T15:47:04Z</time>
      </trkpt>
      <trkpt lat="44.07867" lon="6.36234">
        <ele>1377.7</ele>
        <time>2020-03-04T15:47:04Z</time>
      </trkpt>
      <trkpt lat="44.0793" lon="6.36174">
        <ele>1370.2</ele>
        <time>2020-03-04T15:47:04Z</time>
      </trkpt>
      <trkpt lat="44.08026" lon="6.36124">
        <ele>1378.8</ele>
        <time>2020-03-04T15:47:04Z</time>
      </trkpt>
      <trkpt lat="44.08151" lon="6.3599">
        <ele>1364.2</ele>
        <time>2020-03-04T15:47:04Z</time>
      </trkpt>
      <trkpt lat="44.08297" lon="6.35854">
        <ele>1339.9</ele>
        <time>2020-03-04T15:47:04Z</time>
      </trkpt>
      <trkpt lat="44.08496" lon="6.35687">
        <ele>1310.6</ele>
        <time>2020-03-04T15:47:04Z</time>
      </trkpt>
      <trkpt lat="44.08623" lon="6.35587">
        <ele>1295.1</ele>
        <time>2020-03-04T15:47:04Z</time>
      </trkpt>
      <trkpt lat="44.08683" lon="6.35492">
        <ele>1288.6</ele>
        <time>2020-03-04T15:47:04Z</time>
      </trkpt>
      <trkpt lat="44.08798" lon="6.35367">
        <ele>1270.8</ele>
        <time>2020-03-04T15:47:04Z</time>
      </trkpt>
      <trkpt lat="44.08683" lon="6.35377">
        <ele>1249.4</ele>
        <time>2020-03-04T15:47:04Z</time>
      </trkpt>
      <trkpt lat="44.08531" lon="6.35437">
        <ele>1234.3</ele>
        <time>2020-03-04T15:47:04Z</time>
      </trkpt>
    </trkseg>
  </trk>
</gpx>